Flag for Portugal Weather past 2 weeks in Faro, Portugal

Now
61 °F

Passing clouds.


Feels Like: 61 °F
Forecast: 53 / 67 °F
Wind: 7 mph from Northwest

Location: Faro / Aeroporto


UV Index: 7 (High)

Visibility: N/A


Pressure: 30.15 "Hg

Humidity: 94%

Dew point: 59 °F

Location of FaroLocation

Historic Weather in Faro

°F

Faro temperature yesterday

Maximum temperature yesterday: 66 °F (at 12:00 PM)
Minimum temperature yesterday: 55 °F (at 5:00 AM)
Average temperature yesterday: 62 °F

Past Weeks' High & Low Weather Summary

 TemperatureHumidityPressure
High75 °F (Apr 9, 5:30 PM)100% (Apr 11, 3:30 AM)30.18 "Hg (Apr 11, 3:30 AM)
Low52 °F (Apr 12, 6:00 AM)31% (Apr 17, 2:00 PM)29.59 "Hg (Apr 20, 5:00 PM)
Average63 °F80%29.95 "Hg
* Reported Apr 9 1:00 AM — Apr 24 1:00 AM, Faro, Weather by CustomWeather, © 2014

Note: Actual official high and low records may vary slightly from our data, if they occured in-between our weather recording intervals... More about our weather records

Advertising

Historic Weather Conditions — Data for Previous 24 hours

 ConditionsComfort  
Time TempWeatherWind HumidityBarometerVisibility
1:00 AM
Apr 24
61 °FPassing clouds.8 mph94%30.15 "HgN/A
12:30 AM61 °FPassing clouds.6 mph94%30.15 "HgN/A
12:00 AM61 °FPassing clouds.7 mph94%30.15 "HgN/A
11:00 PM
Apr 23
63 °FPassing clouds.7 mph88%30.15 "HgN/A
10:30 PM63 °FPassing clouds.8 mph88%30.15 "HgN/A
10:00 PM63 °FPassing clouds.7 mph88%30.15 "HgN/A
9:30 PM63 °FPassing clouds.7 mph88%30.15 "HgN/A
9:00 PM63 °FPassing clouds.6 mph88%30.15 "HgN/A
8:30 PM63 °FPassing clouds.8 mph88%30.15 "HgN/A
8:00 PM63 °FPassing clouds.9 mph88%30.15 "HgN/A
7:30 PM63 °FPassing clouds.8 mph88%30.15 "HgN/A
7:00 PM64 °FScattered clouds.9 mph83%30.15 "HgN/A
6:30 PM64 °FScattered clouds.8 mph83%30.15 "HgN/A
6:00 PM64 °FScattered clouds.9 mph83%30.15 "HgN/A
5:00 PM66 °FScattered clouds.10 mph78%30.15 "HgN/A
4:30 PM66 °FScattered clouds.9 mph73%30.15 "HgN/A
4:00 PM66 °FPassing clouds.9 mph73%30.15 "HgN/A
3:30 PM66 °FPassing clouds.9 mph78%30.15 "HgN/A
3:00 PM66 °FScattered clouds.8 mph73%30.15 "HgN/A
2:30 PM66 °FScattered clouds.9 mph73%30.18 "HgN/A
2:00 PM66 °FScattered clouds.10 mph73%30.18 "HgN/A
1:30 PM66 °FScattered clouds.9 mph78%30.18 "HgN/A
1:00 PM64 °FScattered clouds.9 mph78%30.18 "HgN/A
12:30 PM64 °FScattered clouds.9 mph78%30.18 "HgN/A
12:00 PM66 °FScattered clouds.8 mph73%30.18 "HgN/A
11:30 AM64 °FScattered clouds.7 mph83%30.18 "HgN/A
11:00 AM64 °FScattered clouds.6 mph78%30.18 "HgN/A
10:30 AM64 °FScattered clouds.6 mph83%30.18 "HgN/A
10:00 AM63 °FPassing clouds.6 mph83%30.18 "HgN/A
9:30 AM63 °FPassing clouds.3 mph88%30.18 "HgN/A
9:00 AM63 °FPassing clouds.2 mph88%30.18 "HgN/A
8:30 AM61 °FPassing clouds.2 mph88%30.15 "HgN/A
8:00 AM59 °FPassing clouds.3 mph94%30.15 "HgN/A
7:30 AM55 °FPassing clouds.7 mph100%30.15 "HgN/A
7:00 AM57 °FPassing clouds.5 mph94%30.15 "HgN/A
6:30 AM55 °FPassing clouds.5 mph100%30.15 "HgN/A
6:00 AM55 °FPassing clouds.5 mph94%30.12 "HgN/A
5:30 AM57 °FPassing clouds.5 mph94%30.12 "HgN/A
5:00 AM55 °FPassing clouds.5 mph94%30.12 "HgN/A
4:00 AM57 °FPassing clouds.5 mph94%30.12 "HgN/A
3:30 AM57 °FPassing clouds.2 mph94%30.12 "HgN/A
3:00 AM57 °FPassing clouds.3 mph94%30.12 "HgN/A
2:30 AM57 °FPassing clouds.3 mph94%30.12 "HgN/A
2:00 AM59 °FPassing clouds.3 mph88%30.15 "HgN/A
Weather by CustomWeather, © 2014

See weather overview